Simultaneous Nadir Overpasses (SNOs) Predictions

Prediction of SNOs between METOP-A and NOAA-19 Satellite Orbit:

Table of predicted SNOs for the next 14.0 days since TLE Epoch: 5/23/2014
Index Date (METOP-A) Time (METOP-A) Lat,Lon (METOP-A) SZA (METOP-A ) Date (NOAA-19) Time (NOAA-19) Lat,Lon (NOAA-19) SZA (NOAA-19 ) Distance(km) Time Diff (sec)
1 05/28/2014 23:57:15 74.52, 176.44 52.90 05/28/2014 23:56:06 74.50, 174.24 52.95 65.16 69
2 05/29/2014 00:48:05 -74.09, -17.33 127.51 05/29/2014 00:46:53 -74.10, -17.40 127.50 2.40 72
3 05/29/2014 01:38:46 74.06, 149.92 52.45 05/29/2014 01:38:00 74.04, 149.96 52.44 2.26 46
4 05/29/2014 02:29:27 -74.07, -42.72 127.54 05/29/2014 02:28:56 -74.07, -42.84 127.54 3.67 31
5 05/29/2014 03:20:08 74.04, 124.53 52.42 05/29/2014 03:20:03 74.01, 124.52 52.40 2.98 5
6
